Reidsville, NC

11:32 PM EST on December 10, 2017 (GMT -0500)
Reidsville

Weather History for KSIF - February, 2013

Change the Weather History Date:

Monday, February 18, 2013

  Actual Average (KGSO) Record (KGSO)
Temperature  
Mean Temperature 32 °F -  
Max Temperature 53 °F 48 °F 77 °F (1927)
Min Temperature 11 °F 30 °F -1 °F (1958)
Degree Days  
Heating Degree Days 33    
Moisture  
Dew Point 18 °F    
Average Humidity 55    
Maximum Humidity 92    
Minimum Humidity 28    
Precipitation  
Precipitation 0.00 in - - ()
Sea Level Pressure  
Sea Level Pressure 30.29 in    
Wind  
Wind Speed 3 mph (SSW)    
Max Wind Speed 12 mph    
Max Gust Speed 16 mph    
Visibility 10 miles    
Events      
Averages and records for this station are not official NWS values.
T = Trace of Precipitation, MM = Missing Value Source: NWS Daily Summary

Daily Weather History Graph

Daily Weather History Graph

Search for Another Location

Airport or City:

Trip Planner

Search our weather history database for the weather conditions in past years. The results will help you decide how hot, cold, wet, or windy it might be!

Date:

Astronomy

Feb. 18, 2013 Rise Set
Actual Time 7:03 AM EST 6:03 PM EST
Civil Twilight 6:37 AM EST 6:29 PM EST
Nautical Twilight 6:07 AM EST 6:59 PM EST
Astronomical Twilight 5:37 AM EST 7:29 PM EST
Moon 11:53 AM EST (2/18) 1:37 AM EST (2/18)
Length of Visible Light 11h 52m
Length of Day
11h 00m
First Quarter, 58% of the Moon is Illuminated
Feb 18
First Quarter
Feb 25
Full
Mar 4
Last Quarter
Mar 11
New
Mar 19
First Quarter

Hourly Weather History & Observations

Time (EST) Temp. Windchill Dew Point Humidity Pressure Visibility Wind Dir Wind Speed Gust Speed Precip Events Conditions
12:15 AM 18.5 °F - 12.2 °F 76% 30.26 in 10.0 mi Calm Calm - N/A   Clear
12:35 AM 17.4 °F - 12.0 °F 79% 30.26 in 10.0 mi Calm Calm - N/A   Clear
12:55 AM 17.1 °F - 12.4 °F 82% 30.27 in 10.0 mi Calm Calm - N/A   Clear
1:15 AM 16.5 °F - 12.4 °F 84% 30.28 in 10.0 mi Calm Calm - N/A   Clear
1:55 AM 14.9 °F - 11.5 °F 86% 30.28 in 10.0 mi Calm Calm - N/A   Clear
2:15 AM 15.6 °F - 11.7 °F 84% 30.29 in 10.0 mi Calm Calm - N/A   Clear
2:35 AM 15.3 °F - 11.8 °F 86% 30.29 in 10.0 mi Calm Calm - N/A   Clear
2:55 AM 15.3 °F - 12.0 °F 87% 30.30 in 10.0 mi Calm Calm - N/A   Clear
3:35 AM 14.4 °F - 11.7 °F 89% 30.30 in 10.0 mi Calm Calm - N/A   Clear
3:55 AM 14.2 °F - 11.3 °F 88% 30.30 in 10.0 mi Calm Calm - N/A   Clear
4:15 AM 14.2 °F - 11.8 °F 90% 30.31 in 10.0 mi Calm Calm - N/A   Clear
4:35 AM 14.0 °F - 12.0 °F 92% 30.31 in 10.0 mi Calm Calm - N/A   Clear
4:55 AM 13.8 °F - 11.3 °F 90% 30.32 in 10.0 mi Calm Calm - N/A   Clear
5:15 AM 13.3 °F - 10.4 °F 88% 30.33 in 10.0 mi Calm Calm - N/A   Clear
5:35 AM 13.3 °F - 11.1 °F 91% 30.33 in 10.0 mi Calm Calm - N/A   Clear
5:55 AM 13.3 °F - 10.9 °F 90% 30.34 in 10.0 mi Calm Calm - N/A   Clear
6:15 AM 13.6 °F - 11.1 °F 90% 30.35 in 10.0 mi Calm Calm - N/A   Clear
6:35 AM 14.5 °F - 12.4 °F 91% 30.34 in 10.0 mi Calm Calm - N/A   Clear
6:55 AM 12.7 °F - 10.4 °F 90% 30.35 in 10.0 mi Calm Calm - N/A   Clear
7:15 AM 11.8 °F - 9.9 °F 92% 30.36 in 10.0 mi Calm Calm - N/A   Clear
7:35 AM 13.1 °F - 10.9 °F 91% 30.36 in 10.0 mi Calm Calm - N/A   Clear
7:55 AM 17.2 °F - 14.5 °F 89% 30.36 in 10.0 mi Calm Calm - N/A   Clear
8:15 AM 20.1 °F - 15.4 °F 82% 30.37 in 10.0 mi Calm Calm - N/A   Clear
8:35 AM 22.8 °F - 16.7 °F 77% 30.37 in 10.0 mi Calm Calm - N/A   Clear
8:55 AM 26.4 °F - 18.3 °F 71% 30.38 in 10.0 mi Calm Calm - N/A   Clear
9:35 AM 32.2 °F 28.9 °F 18.7 °F 58% 30.37 in 10.0 mi WSW 3.5 mph - N/A   Clear
9:55 AM 34.5 °F 30.4 °F 17.8 °F 50% 30.37 in 10.0 mi SSW 4.6 mph - N/A   Clear
10:15 AM 35.8 °F 30.9 °F 16.7 °F 46% 30.37 in 10.0 mi SW 5.8 mph - N/A   Clear
10:35 AM 37.9 °F 33.5 °F 15.8 °F 41% 30.36 in 10.0 mi WSW 5.8 mph - N/A   Clear
10:55 AM 40.8 °F 37.8 °F 14.9 °F 35% 30.36 in 10.0 mi WSW 4.6 mph - N/A   Clear
11:15 AM 42.3 °F 37.3 °F 16.2 °F 35% 30.36 in 10.0 mi South 8.1 mph - N/A   Clear
11:35 AM 43.7 °F 40.3 °F 16.7 °F 34% 30.35 in 10.0 mi SSW 5.8 mph - N/A   Clear
11:55 AM 46.4 °F 42.4 °F 16.9 °F 31% 30.34 in 10.0 mi SSW 8.1 mph - N/A   Clear
12:15 PM 46.9 °F - 17.2 °F 31% 30.33 in 10.0 mi WSW 8.1 mph - N/A   Clear
12:35 PM 48.9 °F - 18.7 °F 30% 30.32 in 10.0 mi South 5.8 mph - N/A   Clear
12:55 PM 49.3 °F - 18.0 °F 29% 30.31 in 10.0 mi SSW 6.9 mph - N/A   Clear
1:15 PM 50.0 °F - 18.7 °F 29% 30.30 in 10.0 mi South 8.1 mph - N/A   Clear
1:35 PM 50.9 °F - 18.3 °F 28% 30.29 in 10.0 mi WSW 9.2 mph - N/A   Clear
1:55 PM 52.2 °F - 19.9 °F 28% 30.28 in 10.0 mi WSW 6.9 mph - N/A   Clear
2:15 PM 52.0 °F - 19.8 °F 28% 30.27 in 10.0 mi WSW 9.2 mph - N/A   Clear
2:35 PM 53.4 °F - 20.7 °F 28% 30.26 in 10.0 mi SSW 6.9 mph - N/A   Clear
2:55 PM 53.2 °F - 20.7 °F 28% 30.25 in 10.0 mi WSW 4.6 mph - N/A   Clear
3:15 PM 52.9 °F - 20.8 °F 29% 30.25 in 10.0 mi SW 11.5 mph - N/A   Clear
3:35 PM 53.1 °F - 20.7 °F 28% 30.24 in 10.0 mi SSW 6.9 mph - N/A   Clear
3:55 PM 53.1 °F - 21.0 °F 29% 30.24 in 10.0 mi SSW 6.9 mph 16.1 mph N/A   Clear
4:15 PM 53.2 °F - 20.5 °F 28% 30.24 in 10.0 mi SSW 6.9 mph - N/A   Clear
4:35 PM 52.7 °F - 20.5 °F 28% 30.24 in 10.0 mi SSW 9.2 mph - N/A   Clear
4:55 PM 52.0 °F - 20.3 °F 29% 30.24 in 10.0 mi SSW 9.2 mph - N/A   Clear
5:15 PM 51.3 °F - 21.0 °F 31% 30.23 in 10.0 mi SSW 4.6 mph - N/A   Clear
5:35 PM 50.9 °F - 20.8 °F 31% 30.24 in 10.0 mi SSW 5.8 mph - N/A   Clear
5:55 PM 49.6 °F - 21.0 °F 32% 30.25 in 10.0 mi South 6.9 mph - N/A   Clear
6:15 PM 48.9 °F - 21.0 °F 33% 30.25 in 10.0 mi South 5.8 mph - N/A   Clear
6:35 PM 47.8 °F - 21.6 °F 35% 30.25 in 10.0 mi South 4.6 mph - N/A   Clear
6:55 PM 45.3 °F 42.3 °F 22.5 °F 40% 30.25 in 10.0 mi South 5.8 mph - N/A   Clear
7:15 PM 44.6 °F 42.2 °F 22.5 °F 42% 30.25 in 10.0 mi South 4.6 mph - N/A   Clear
7:35 PM 44.4 °F 42.9 °F 22.5 °F 42% 30.25 in 10.0 mi South 3.5 mph - N/A   Clear
7:55 PM 44.4 °F 42.0 °F 22.8 °F 43% 30.24 in 10.0 mi South 4.6 mph - N/A   Clear
8:15 PM 44.1 °F 40.8 °F 22.8 °F 43% 30.24 in 10.0 mi South 5.8 mph - N/A   Clear
8:35 PM 43.9 °F 40.5 °F 23.0 °F 44% 30.24 in 10.0 mi South 5.8 mph - N/A   Clear
8:55 PM 43.7 °F 40.3 °F 23.2 °F 44% 30.23 in 10.0 mi South 5.8 mph - N/A   Clear
9:15 PM 41.9 °F 38.2 °F 23.9 °F 49% 30.23 in 10.0 mi South 5.8 mph - N/A   Clear
9:35 PM 42.3 °F 40.5 °F 23.7 °F 48% 30.22 in 10.0 mi South 3.5 mph - N/A   Clear
9:55 PM 42.8 °F 40.1 °F 23.5 °F 47% 30.22 in 10.0 mi SSW 4.6 mph - N/A   Clear
10:15 PM 43.2 °F 39.0 °F 23.7 °F 46% 30.22 in 10.0 mi SSW 6.9 mph - N/A   Clear
10:35 PM 43.7 °F 40.3 °F 23.9 °F 46% 30.22 in 10.0 mi SSW 5.8 mph - N/A   Clear
10:55 PM 43.0 °F 39.5 °F 23.9 °F 47% 30.21 in 10.0 mi SSW 5.8 mph - N/A   Clear
11:15 PM 42.8 °F 38.6 °F 23.9 °F 47% 30.21 in 10.0 mi SSW 6.9 mph - N/A   Clear
11:35 PM 42.8 °F 39.3 °F 23.7 °F 47% 30.19 in 10.0 mi South 5.8 mph - N/A   Clear
11:55 PM 41.9 °F 37.5 °F 23.9 °F 49% 30.19 in 10.0 mi South 6.9 mph - N/A   Clear